Find Starlink 31558

NORAD ID: 59196 Int'l Des: 2024-045 Owner: SPXS Country: US Constellation: starlink operational
LEOCIRCULAR

当前视图

正在加载3D地球...

About Starlink 31558

Starlink 31558 (NORAD 59196) is a starlink constellation satellite (v2 mini) launched Mar 11, 2024 by SPXS of US. It operates in LEO, CIRCULAR orbit with a mass of 730.00 kg.

即将过境

Passes for default location (London). Set your location on the main map for personalized predictions.

高度历史

Loading altitude history...

两行轨道根数

1 59196U 24045U 26237.96426980 .00002402 00000-0 96815-4 0 9990
2 59196 43.0017 216.2307 0001066 277.9370 82.1360 15.27567317139069
Epoch: Aug 25, 2026 • Age: 21 hours

当前状态

高度 483.3 km
远地点 / 近地点 N/A
速度 7.63 km/s
星下点 23.77°N, 85.63°E
发射日期 Mar 11, 2024
运行时间 2.4 years
类型 internet

技术详情

分类 Payload
质量 730.00 kg
干质量 700.00 kg
总质量 730.00 kg
长度 0.30 m
直径 4.10 m
跨度 29.00 m
形状 Box + pan
制造商 SPXS
平台类型 Starlink V2M
阶段状态 In Orbit
所有者/国家 SPXS/US

Most Searched